IZ0VWB-3 Weather Reports


Display with metric or nautical units.
time (UTC)temp
F
wind
direction
speed
MPH
gust
MPH
rain 1hr
in
rain 24hr
in
rain mn
in
humidity
%
barometer
mb
20260503200845 59 266 2.0 5.0 0.00 0.00 0.00 74 1005.9
20260503195845 59 231 3.0 3.0 0.00 0.00 0.00 74 1006.0
20260503194845 59 211 4.0 4.0 0.00 0.00 0.00 72 1005.8
20260503193846 60 214 2.0 4.0 0.00 0.00 0.00 70 1005.7
20260503192846 60 248 0.0 1.0 0.00 0.00 0.00 70 1005.6
20260503191846 60 270 0.0 0.0 0.00 0.00 0.00 70 1005.5
20260503190845 61 68 0.0 0.0 0.00 0.00 0.00 68 1005.4
20260503185846 61 322 1.0 2.0 0.00 0.00 0.00 68 1005.3
20260503184846 61 112 2.0 2.0 0.00 0.00 0.00 67 1005.2
20260503183847 62 101 1.0 3.0 0.00 0.00 0.00 67 1005.0
20260503182845 62 250 8.0 12.0 0.00 0.00 0.00 66 1004.7
20260503181846 63 225 8.0 12.0 0.00 0.00 0.00 65 1004.6
20260503180844 64 234 7.0 8.0 0.00 0.00 0.00 63 1004.7
20260503175845 65 255 8.0 9.0 0.00 0.00 0.00 59 1004.5
20260503174846 65 232 9.0 12.0 0.00 0.00 0.00 54 1004.5
20260503173844 65 248 6.0 14.0 0.00 0.00 0.00 54 1004.5
20260503172845 66 226 6.0 7.0 0.00 0.00 0.00 53 1004.4
20260503171845 66 238 4.0 7.0 0.00 0.00 0.00 53 1004.4
20260503170839 67 234 6.0 7.0 0.00 0.00 0.00 53 1004.4
20260503150839 72 236 6.0 7.0 0.00 0.00 0.00 50 1005.0
20260503130906 74 234 8.0 9.0 0.00 0.00 0.00 44 1006.2
20260503090240 66 104 2.0 4.0 0.00 0.00 0.00 62 1007.6
20260503081240 62 116 4.0 5.0 0.00 0.00 0.00 69 1007.8
20260503080239 62 104 4.0 4.0 0.00 0.00 0.00 70 1007.8
20260503072238 60 127 4.0 5.0 0.00 0.00 0.00 71 1007.8
20260503071239 60 114 4.0 4.0 0.00 0.00 0.00 71 1008.0
20260503070240 60 105 0.0 1.0 0.00 0.00 0.00 70 1008.1
20260503054839 56 96 1.0 2.0 0.00 0.00 0.00 79 1008.0
20260503053838 56 315 1.0 1.0 0.00 0.00 0.00 80 1008.0
20260503052839 56 68 0.0 0.0 0.00 0.00 0.00 82 1007.9
20260503051839 54 90 0.0 0.0 0.00 0.00 0.00 83 1007.9
20260503050840 53 269 0.0 0.0 0.00 0.00 0.00 83 1007.8
20260503045841 51 248 0.0 0.0 0.00 0.00 0.00 83 1007.8
20260503044839 49 248 0.0 0.0 0.00 0.00 0.00 83 1008.0
20260503043839 48 270 0.0 0.0 0.00 0.00 0.00 84 1007.8
20260503042839 47 202 2.0 2.0 0.00 0.00 0.00 83 1007.7
20260503041840 47 315 1.0 1.0 0.00 0.00 0.00 83 1007.7
20260503040839 48 135 0.0 0.0 0.00 0.00 0.00 83 1007.6
20260503035839 47 135 0.0 0.0 0.00 0.00 0.00 82 1007.7
20260503034840 48 122 1.0 2.0 0.00 0.00 0.00 82 1007.5
20260503033841 49 202 0.0 0.0 0.00 0.00 0.00 82 1007.6
20260503032839 48 158 0.0 0.0 0.00 0.00 0.00 81 1007.5
20260503031839 47 170 0.0 0.0 0.00 0.00 0.00 81 1007.6
20260503030839 48 135 0.0 0.0 0.00 0.00 0.00 81 1007.6
20260503025840 48 180 0.0 0.0 0.00 0.00 0.00 81 1007.6
20260503024840 48 202 0.0 0.0 0.00 0.00 0.00 81 1007.5
20260503023840 48 202 0.0 0.0 0.00 0.00 0.00 80 1007.5
20260503022840 48 128 2.0 2.0 0.00 0.00 0.00 79 1007.5
20260503021838 48 166 0.0 0.0 0.00 0.00 0.00 80 1007.6
20260503020839 48 202 0.0 0.0 0.00 0.00 0.00 79 1007.7
20260503015839 48 202 0.0 0.0 0.00 0.00 0.00 79 1007.7
20260503014840 49 248 0.0 2.0 0.00 0.00 0.00 78 1007.6
20260503013838 49 270 0.0 0.0 0.00 0.00 0.00 77 1007.7
20260503012839 49 270 0.0 0.0 0.00 0.00 0.00 76 1007.7
20260503011839 50 112 0.0 0.0 0.00 0.00 0.00 76 1007.8
20260503010836 50 153 0.0 1.0 0.00 0.00 0.00 75 1007.8
20260503005837 51 130 1.0 2.0 0.00 0.00 0.00 74 1007.9
20260503004836 51 180 0.0 0.0 0.00 0.00 0.00 74 1008.0
20260503003837 51 180 1.0 0.0 0.00 0.00 0.00 73 1008.1
20260503002837 52 152 0.0 0.0 0.00 0.00 0.00 72 1008.1
20260503001836 51 149 0.0 1.0 0.00 0.00 0.00 72 1008.3
20260503000837 52 150 0.0 0.0 0.00 0.00 0.00 71 1008.3
20260502235836 52 134 1.0 2.0 0.00 0.00 0.00 70 1008.2
20260502234836 52 147 0.0 0.0 0.00 0.00 0.00 70 1008.4
20260502233837 53 148 0.0 1.0 0.00 0.00 0.00 69 1008.4
20260502232837 53 145 1.0 1.0 0.00 0.00 0.00 69 1008.4
20260502231836 53 145 1.0 2.0 0.00 0.00 0.00 68 1008.5
20260502230837 53 139 1.0 1.0 0.00 0.00 0.00 68 1008.6
20260502225837 53 157 1.0 2.0 0.00 0.00 0.00 67 1008.6
20260502224837 54 141 0.0 1.0 0.00 0.00 0.00 67 1008.7
20260502223836 53 169 1.0 1.0 0.00 0.00 0.00 67 1008.8
20260502222836 53 158 0.0 0.0 0.00 0.00 0.00 66 1008.7
20260502221836 53 135 0.0 0.0 0.00 0.00 0.00 64 1008.7
20260502220836 53 135 0.0 0.0 0.00 0.00 0.00 64 1008.7
20260502215836 53 124 1.0 2.0 0.00 0.00 0.00 63 1008.7
20260502214835 54 202 0.0 0.0 0.00 0.00 0.00 62 1008.8
20260502213836 54 248 0.0 0.0 0.00 0.00 0.00 61 1008.7
20260502212836 55 202 0.0 0.0 0.00 0.00 0.00 61 1008.5
20260502211835 56 223 2.0 2.0 0.00 0.00 0.00 61 1008.5
20260502210839 55 202 1.0 2.0 0.00 0.00 0.00 61 1008.5
20260502205839 55 248 0.0 0.0 0.00 0.00 0.00 60 1008.5
20260502204838 56 225 2.0 2.0 0.00 0.00 0.00 61 1008.4
20260502203839 56 202 0.0 0.0 0.00 0.00 0.00 57 1008.2
20260502202839 56 225 0.0 0.0 0.00 0.00 0.00 56 1008.3
20260502201838 56 202 0.0 0.0 0.00 0.00 0.00 55 1008.5